Flag for Kazakhstan Weather past 2 weeks in Astana, Kazakhstan

Now
90 °F

Sunny.


Feels Like: 86 °F
Forecast: 61 / 87 °F
Wind: 10 mph from West

Location: Astana

Current Time: Aug 1, 2015 at 2:22:49 PM

Latest Report: Aug 1, 2015 at 1:30 PM


Visibility: 10 mi

Pressure: 29.92 "Hg

Humidity: 21%

Dew point: 45 °F

Location of AstanaLocation

Historic Weather in Astana — Graph

°F

Astana temperature yesterday

Maximum temperature yesterday: 86 °F (at 3:30 PM)
Minimum temperature yesterday: 54 °F (at 5:30 AM)
Average temperature yesterday: 72 °F

Past Weeks' High & Low Weather Summary

 TemperatureHumidityPressure
High102 °F (Jul 18, 3:00 PM)94% (Jul 30, 3:30 AM)30.01 "Hg (Jul 30, 3:30 AM)
Low48 °F (Jul 20, 5:30 AM)11% (Jul 18, 3:00 PM)29.36 "Hg (Jul 18, 2:30 PM)
Average70 °F55%29.75 "Hg
* Reported Jul 17 1:00 PM — Aug 1 1:00 PM, Astana, Weather by CustomWeather, © 2015

Note: Actual official high and low records may vary slightly from our data, if they occured in-between our weather recording intervals... More about our weather records

Advertising

Astana weather history for previous 24 hours

 ConditionsComfort  
Time TempWeatherWind HumidityBarometerVisibility
1:00 PM
Sat, Aug 1
90 °FPassing clouds.13 mph21%29.95 "HgN/A
12:30 PM90 °FSunny.13 mph22%29.95 "Hg10 mi
12:00 PM88 °FPassing clouds.13 mph25%29.95 "HgN/A
11:30 AM86 °FSunny.13 mph27%29.95 "Hg10 mi
11:00 AM86 °FPassing clouds.10 mph27%29.95 "HgN/A
10:30 AM82 °FSunny.10 mph32%29.95 "Hg10 mi
10:00 AM82 °FSunny.10 mph32%29.95 "Hg10 mi
9:30 AM79 °FSunny.8 mph37%29.95 "Hg10 mi
9:00 AM75 °FSunny.8 mph41%29.98 "Hg10 mi
8:30 AM72 °FSunny.8 mph50%29.98 "Hg10 mi
8:00 AM68 °FSunny.6 mph56%29.98 "Hg10 mi
7:30 AM64 °FSunny.3 mph68%29.98 "Hg10 mi
7:00 AM61 °FSunny.3 mph72%29.98 "Hg10 mi
6:30 AM57 °FClear.3 mph82%29.95 "Hg4 mi
6:00 AM57 °FClear.3 mph77%29.95 "Hg5 mi
5:30 AM57 °FClear.3 mph77%29.95 "Hg3 mi
5:00 AM59 °FClear.6 mph77%29.95 "Hg10 mi
4:30 AM61 °FClear.6 mph72%29.95 "Hg10 mi
3:30 AM61 °FClear.3 mph68%29.95 "Hg10 mi
3:00 AM63 °FClear.3 mph64%29.95 "Hg10 mi
2:30 AM61 °FClear.3 mph68%29.95 "Hg10 mi
2:00 AM63 °FClear.8 mph64%29.95 "Hg10 mi
1:30 AM63 °FClear.8 mph64%29.95 "Hg10 mi
1:00 AM63 °FClear.8 mph64%29.95 "Hg10 mi
12:30 AM64 °FClear.6 mph60%29.95 "Hg10 mi
12:00 AM64 °FClear.6 mph60%29.95 "Hg10 mi
11:30 PM
Fri, Jul 31
66 °FClear.3 mph56%29.95 "Hg10 mi
11:00 PM68 °FClear.6 mph53%29.95 "Hg10 mi
10:30 PM70 °FClear.6 mph50%29.95 "Hg10 mi
10:00 PM72 °FSunny.6 mph47%29.95 "Hg10 mi
9:30 PM72 °FSunny.6 mph47%29.95 "Hg10 mi
9:00 PM75 °FSunny.6 mph41%29.95 "Hg10 mi
8:30 PM79 °FSunny.3 mph32%29.92 "Hg10 mi
8:00 PM82 °FSunny.3 mph26%29.92 "Hg10 mi
7:30 PM82 °FSunny.3 mph26%29.92 "Hg10 mi
7:00 PM84 °FSunny.6 mph25%29.92 "Hg10 mi
6:30 PM84 °FSunny.6 mph25%29.95 "Hg10 mi
6:00 PM84 °FPassing clouds.6 mph25%29.95 "HgN/A
5:30 PM84 °FPassing clouds.6 mph25%29.95 "HgN/A
5:00 PM84 °FPassing clouds.6 mph25%29.95 "HgN/A
4:30 PM84 °FPassing clouds.6 mph27%29.95 "HgN/A
4:00 PM84 °FPassing clouds.6 mph25%29.95 "HgN/A
3:30 PM86 °FPassing clouds.6 mph25%29.95 "HgN/A
3:00 PM84 °FPartly sunny.6 mph25%29.95 "HgN/A
2:30 PM84 °FPartly sunny.8 mph25%29.98 "HgN/A
2:00 PM82 °FPassing clouds.3 mph28%29.98 "HgN/A
Weather by CustomWeather, © 2015

See weather overviewHow to use our weather pages